| time (UTC) | temp F | wind direction | speed MPH | gust MPH | rain 1hr in | rain 24hr in | rain mn in | humidity % | barometer mb |
| 20260506213055 | 62 | 273 | 13.0 | 20.0 | 0.00 | 0.18 | 0.00 | 31 | 1014.2 |
| 20260506211554 | 61 | 304 | 6.0 | 18.0 | 0.00 | 0.18 | 0.00 | 36 | 1014.1 |
| 20260506210055 | 62 | 207 | 18.0 | 25.0 | 0.00 | 0.18 | 0.00 | 30 | 1014.2 |
| 20260506204610 | 63 | 243 | 8.0 | 26.0 | 0.00 | 0.18 | 0.00 | 31 | 1014.1 |
| 20260506203055 | 61 | 244 | 8.0 | 16.0 | 0.00 | 0.18 | 0.00 | 33 | 1014.1 |
| 20260506201552 | 62 | 241 | 16.0 | 22.0 | 0.00 | 0.18 | 0.00 | 34 | 1014.3 |
| 20260506200049 | 60 | 234 | 15.0 | 23.0 | 0.00 | 0.18 | 0.00 | 36 | 1014.4 |
| 20260506194600 | 61 | 246 | 10.0 | 20.0 | 0.00 | 0.18 | 0.00 | 35 | 1014.5 |
| 20260506193049 | 61 | 238 | 12.0 | 20.0 | 0.00 | 0.18 | 0.00 | 36 | 1014.6 |
| 20260506191550 | 62 | 261 | 10.0 | 20.0 | 0.00 | 0.18 | 0.00 | 36 | 1014.6 |
| 20260506190046 | 62 | 214 | 11.0 | 21.0 | 0.00 | 0.18 | 0.00 | 37 | 1014.7 |
| 20260506184542 | 60 | 221 | 13.0 | 22.0 | 0.00 | 0.18 | 0.00 | 39 | 1014.8 |
| 20260506183038 | 59 | 242 | 12.0 | 23.0 | 0.00 | 0.18 | 0.00 | 40 | 1014.9 |
| 20260506181537 | 59 | 219 | 10.0 | 21.0 | 0.00 | 0.18 | 0.00 | 41 | 1015.1 |
| 20260506180039 | 58 | 250 | 9.0 | 19.0 | 0.00 | 0.18 | 0.00 | 44 | 1015.1 |
| 20260506174532 | 57 | 244 | 9.0 | 17.0 | 0.00 | 0.18 | 0.00 | 46 | 1015.2 |
| 20260506173025 | 56 | 248 | 9.0 | 18.0 | 0.00 | 0.18 | 0.00 | 49 | 1015.4 |
| 20260506171523 | 55 | 242 | 7.0 | 22.0 | 0.00 | 0.18 | 0.00 | 51 | 1015.4 |
| 20260506170018 | 54 | 244 | 10.0 | 16.0 | 0.00 | 0.18 | 0.00 | 51 | 1015.4 |
| 20260506164518 | 53 | 266 | 9.0 | 18.0 | 0.00 | 0.18 | 0.00 | 54 | 1015.3 |
| 20260506163010 | 52 | 217 | 10.0 | 17.0 | 0.00 | 0.18 | 0.00 | 56 | 1015.2 |
| 20260506161505 | 51 | 219 | 6.0 | 16.0 | 0.00 | 0.18 | 0.00 | 60 | 1015.2 |
| 20260506160001 | 49 | 262 | 8.0 | 16.0 | 0.00 | 0.18 | 0.00 | 62 | 1015.4 |
| 20260506154613 | 48 | 263 | 9.0 | 19.0 | 0.00 | 0.18 | 0.00 | 65 | 1015.4 |
| 20260506153053 | 46 | 223 | 9.0 | 18.0 | 0.00 | 0.18 | 0.00 | 68 | 1015.5 |
| 20260506151549 | 45 | 224 | 8.0 | 17.0 | 0.00 | 0.18 | 0.00 | 70 | 1015.5 |
| 20260506150051 | 44 | 231 | 10.0 | 16.0 | 0.00 | 0.18 | 0.00 | 71 | 1015.6 |
| 20260506144551 | 44 | 233 | 8.0 | 15.0 | 0.00 | 0.18 | 0.00 | 73 | 1015.6 |
| 20260506143039 | 42 | 235 | 7.0 | 10.0 | 0.00 | 0.18 | 0.00 | 77 | 1015.5 |
| 20260506141536 | 41 | 227 | 5.0 | 12.0 | 0.00 | 0.18 | 0.00 | 77 | 1015.5 |
| 20260506140041 | 40 | 240 | 3.0 | 7.0 | 0.00 | 0.18 | 0.00 | 79 | 1015.5 |
| 20260506134532 | 40 | 205 | 2.0 | 4.0 | 0.00 | 0.18 | 0.00 | 80 | 1015.6 |
| 20260506133042 | 39 | 205 | 0.0 | 2.0 | 0.00 | 0.18 | 0.00 | 82 | 1015.3 |
| 20260506131531 | 39 | 205 | 3.0 | 6.0 | 0.00 | 0.18 | 0.00 | 82 | 1015.2 |
| 20260506130026 | 39 | 217 | 2.0 | 7.0 | 0.00 | 0.18 | 0.00 | 80 | 1015.2 |
| 20260506124515 | 39 | 236 | 3.0 | 10.0 | 0.00 | 0.18 | 0.00 | 79 | 1014.9 |
| 20260506123013 | 38 | 267 | 2.0 | 13.0 | 0.00 | 0.18 | 0.00 | 81 | 1014.8 |
| 20260506121508 | 38 | 270 | 4.0 | 9.0 | 0.00 | 0.18 | 0.00 | 82 | 1014.6 |
| 20260506120006 | 38 | 271 | 3.0 | 13.0 | 0.00 | 0.18 | 0.00 | 82 | 1014.5 |
| 20260506114506 | 38 | 274 | 5.0 | 12.0 | 0.00 | 0.18 | 0.00 | 82 | 1014.3 |
| 20260506113006 | 38 | 268 | 4.0 | 10.0 | 0.00 | 0.18 | 0.00 | 81 | 1014.3 |
| 20260506111503 | 39 | 257 | 2.0 | 12.0 | 0.00 | 0.18 | 0.00 | 81 | 1014.5 |
| 20260506110002 | 38 | 257 | 7.0 | 13.0 | 0.00 | 0.18 | 0.00 | 83 | 1014.5 |
| 20260506104601 | 38 | 339 | 2.0 | 5.0 | 0.00 | 0.18 | 0.00 | 85 | 1014.4 |
| 20260506103102 | 38 | 230 | 1.0 | 4.0 | 0.00 | 0.18 | 0.00 | 86 | 1014.2 |
| 20260506101559 | 38 | 230 | 1.0 | 4.0 | 0.00 | 0.18 | 0.00 | 86 | 1014.2 |
| 20260506100100 | 38 | 229 | 1.0 | 4.0 | 0.00 | 0.18 | 0.00 | 85 | 1014.2 |
| 20260506094554 | 38 | 227 | 1.0 | 7.0 | 0.00 | 0.18 | 0.00 | 86 | 1014.2 |
| 20260506093054 | 38 | 240 | 3.0 | 7.0 | 0.00 | 0.18 | 0.00 | 87 | 1014.1 |
| 20260506091554 | 38 | 263 | 4.0 | 10.0 | 0.00 | 0.18 | 0.00 | 88 | 1014.1 |
| 20260506090049 | 39 | 221 | 3.0 | 9.0 | 0.00 | 0.18 | 0.00 | 87 | 1014.1 |
| 20260506084546 | 39 | 193 | 1.0 | 4.0 | 0.00 | 0.18 | 0.00 | 87 | 1014.1 |
| 20260506083044 | 39 | 188 | 0.0 | 4.0 | 0.00 | 0.18 | 0.00 | 87 | 1014.0 |
| 20260506081541 | 40 | 187 | 0.0 | 3.0 | 0.00 | 0.18 | 0.00 | 87 | 1014.2 |
| 20260506073037 | 40 | 222 | 0.0 | 2.0 | 0.00 | 0.18 | 0.00 | 87 | 1014.5 |
| 20260506071534 | 41 | 222 | 0.0 | 6.0 | 0.00 | 0.18 | 0.00 | 87 | 1014.6 |
| 20260506061526 | 42 | 205 | 0.0 | 6.0 | 0.00 | 0.18 | 0.00 | 90 | 1014.6 |
| 20260506044520 | 42 | 254 | 5.0 | 15.0 | 0.06 | 0.17 | 0.17 | 86 | 1015.1 |
| 20260506043016 | 43 | 74 | 1.0 | 4.0 | 0.04 | 0.15 | 0.15 | 89 | 1014.5 |
| 20260506041514 | 43 | 71 | 2.0 | 10.0 | 0.02 | 0.13 | 0.13 | 87 | 1014.0 |
| 20260506040027 | 42 | 67 | 5.0 | 9.0 | 0.01 | 0.12 | 0.12 | 88 | 1013.7 |
| 20260506034512 | 42 | 355 | 1.0 | 9.0 | 0.01 | 0.11 | 0.11 | 86 | 1014.0 |
| 20260506033010 | 43 | 347 | 3.0 | 9.0 | 0.06 | 0.11 | 0.11 | 86 | 1014.0 |
| 20260506031508 | 43 | 323 | 5.0 | 11.0 | 0.06 | 0.11 | 0.11 | 86 | 1014.0 |
| 20260506030005 | 44 | 304 | 4.0 | 11.0 | 0.06 | 0.11 | 0.11 | 86 | 1014.0 |
| 20260506024502 | 44 | 309 | 12.0 | 20.0 | 0.05 | 0.10 | 0.10 | 81 | 1013.1 |
| 20260506023101 | 46 | 300 | 9.0 | 13.0 | 0.00 | 0.05 | 0.05 | 80 | 1012.7 |
| 20260506021608 | 45 | 338 | 8.0 | 13.0 | 0.03 | 0.05 | 0.05 | 81 | 1011.9 |
| 20260506020057 | 45 | 338 | 5.0 | 12.0 | 0.05 | 0.05 | 0.05 | 84 | 1012.0 |
| 20260506014555 | 45 | 329 | 5.0 | 12.0 | 0.05 | 0.05 | 0.05 | 82 | 1012.1 |
| 20260506013054 | 47 | 316 | 6.0 | 23.0 | 0.05 | 0.05 | 0.05 | 75 | 1011.9 |
| 20260506011546 | 56 | 252 | 14.0 | 20.0 | 0.01 | 0.01 | 0.01 | 46 | 1012.0 |
| 20260506004550 | 58 | 232 | 8.0 | 14.0 | 0.00 | 0.00 | 0.00 | 41 | 1011.0 |
| 20260506003045 | 60 | 239 | 8.0 | 17.0 | 0.00 | 0.00 | 0.00 | 39 | 1011.0 |
| 20260506001547 | 61 | 240 | 7.0 | 16.0 | 0.00 | 0.00 | 0.00 | 37 | 1011.1 |
| 20260505234602 | 62 | 236 | 10.0 | 18.0 | 0.00 | 0.00 | 0.00 | 38 | 1011.0 |
| 20260505233043 | 60 | 220 | 10.0 | 21.0 | 0.00 | 0.00 | 0.00 | 39 | 1010.9 |
| 20260505231543 | 58 | 246 | 14.0 | 25.0 | 0.00 | 0.00 | 0.00 | 42 | 1010.9 |
| 20260505224542 | 60 | 223 | 14.0 | 25.0 | 0.00 | 0.00 | 0.00 | 39 | 1010.7 |
| 20260505223042 | 62 | 214 | 12.0 | 21.0 | 0.00 | 0.00 | 0.00 | 39 | 1010.8 |
| 20260505221539 | 63 | 228 | 11.0 | 22.0 | 0.00 | 0.00 | 0.00 | 37 | 1011.0 |
| 20260505220138 | 64 | 232 | 10.0 | 18.0 | 0.00 | 0.00 | 0.00 | 35 | 1011.0 |
| 20260505214559 | 65 | 223 | 10.0 | 20.0 | 0.00 | 0.00 | 0.00 | 34 | 1011.1 |